Погода в Павловке

Россия / Орловская область     52°20′34″N   37°04′37″E
темп.,
°C
ветер,
м/с
пор.,
м/с
влажн.,
%
обл.,
%
осадки,
мм/ч
давл.,
гПа
погр.,
м
26 июля, пн
пн2600:00+19юв345233 0.0 102265
03:00+16ююв226673 0.0 102313
06:00+17ююв226442 0.0 102334
09:00+22ююв11495 0.0 1024368
12:00+26юз11385 0.0 10231754
15:00+26з113797 0.0 10222186
18:00+26сз214017 0.0 10222063
21:00+20всв225730 0.0 102317
27 июля, вт
вт2700:00+19юв22625 0.0 102313
03:00+17ююз11682 0.0 102311
06:00+17ю117084 0.0 102311
09:00+24ю115066 0.0 1023349
12:00+27зюз223939 0.0 10221891
15:00+28з223890 0.0 10212194
18:00+25всв23516 0.1 1020218
21:00+21в11553 0.1 102011
28 июля, ср
ср2800:00+19вюв226126 0.0 102019
03:00+18ююв226490 0.0 101915
06:00+18ю35645 0.0 101882
09:00+25ю464779 0.0 1017443
12:00+24ю4754100 0.0 1016477
15:00+23зюз71163100 0.0 1015675
18:00+22ююз6106666 0.1 1013536
21:00+18ююз31092100 2.5 1013329
29 июля, чт
чт2900:00+18юз411960 1.1 1012288
03:00+17зюз37951 1.1 1011141
06:00+18з35926 0.0 1011100
09:00+25з56625 1.1 1011741
12:00+27зсз564867 0.6 10111702
15:00+27з6847100 0.6 10102204
18:00+26з6959100 0.0 1011902
21:00+21з3577100 0.0 101174
30 июля, пт
пт3000:00+19з33812 0.0 101233
03:00+18з22810 0.0 101212
06:00+19з11775 0.0 101211
09:00+25ю22545 0.0 1012427
12:00+29ююз334228 0.0 10121482
15:00+30ю454189 0.0 10102354
18:00+29ю454835 0.0 10101083
21:00+21ю388172 0.6 1011218